Multibeam Report for TN290C


Ship Name: Thomas G. Thompson
Chief Scientist: Ogston, Andrea
University of Washington
Source Organization: UNOLS R2R
Start Date: 2013-01-23
End Date: 2013-01-24


View ISO Metadata

Visit the full NCEI Bathymetry Viewer


Multibeam Bathymetry

Cruise Details

Project: Student Cruise
Instrument: Kongsberg EM302

Data Quality

Number of Files: 81
Number of Records: 283590
BATHYMETRY DATA Quantity Percentage
Number of Beams 122510016 100%
Number of Good Beams 115679441 94.42%
Number of Zero Beams 0 0%
Number of Flagged Beams 6830575 5.58%

Navigation Totals

Total Time: 31.2799 hours
Total Track Length: 340.3741 km
Average Speed: 10.882 km/hr (5.8758 knots)

Cruise Bounds

Northern Extent: 48.24541
Southern Extent: 47.62596
Western Extent: -123.62503
Eastern Extent: -122.38794

Limits

Minimum Sonar Depth 4.9865 Maximum Sonar Depth 6.6967
Minimum Altitude 4.725 Maximum Altitude 494.5412
Minimum Depth 8.0003 Maximum Depth 502.0496

File Information

Full Resolution Bathymetry as collected (raw): 80

Files File Size Description
0000_20130123_182908_TGT.all.mb58.gz 115.59MB Kongsberg multibeam vendor format
0001_20130123_184448_TGT.all.mb58.gz 220.72MB Kongsberg multibeam vendor format
0002_20130123_192138_TGT.all.mb58.gz 405.42MB Kongsberg multibeam vendor format
0003_20130123_195139_TGT.all.mb58.gz 336.39MB Kongsberg multibeam vendor format
0004_20130123_202139_TGT.all.mb58.gz 357.36MB Kongsberg multibeam vendor format
0006_20130123_212138_TGT.all.mb58.gz 381.15MB Kongsberg multibeam vendor format
0007_20130123_215138_TGT.all.mb58.gz 470.15MB Kongsberg multibeam vendor format
0008_20130123_222138_TGT.all.mb58.gz 392.93MB Kongsberg multibeam vendor format
0009_20130123_225138_TGT.all.mb58.gz 402.35MB Kongsberg multibeam vendor format
0010_20130123_232139_TGT.all.mb58.gz 237.87MB Kongsberg multibeam vendor format
0011_20130124_005942_TGT.all.mb58.gz 200.54MB Kongsberg multibeam vendor format
0012_20130124_011605_TGT.all.mb58.gz 262.2KB Kongsberg multibeam vendor format
0013_20130124_012107_TGT.all.mb58.gz 284.22MB Kongsberg multibeam vendor format
0014_20130124_015108_TGT.all.mb58.gz 320.53MB Kongsberg multibeam vendor format
0015_20130124_022107_TGT.all.mb58.gz 321.34MB Kongsberg multibeam vendor format
0016_20130124_025108_TGT.all.mb58.gz 312.58MB Kongsberg multibeam vendor format
0017_20130124_032108_TGT.all.mb58.gz 294.14MB Kongsberg multibeam vendor format
0018_20130124_035107_TGT.all.mb58.gz 282.91MB Kongsberg multibeam vendor format
0019_20130124_042108_TGT.all.mb58.gz 296.63MB Kongsberg multibeam vendor format
0020_20130124_045108_TGT.all.mb58.gz 303.32MB Kongsberg multibeam vendor format
0021_20130124_052108_TGT.all.mb58.gz 313.93MB Kongsberg multibeam vendor format
0022_20130124_055108_TGT.all.mb58.gz 325.77MB Kongsberg multibeam vendor format
0023_20130124_062108_TGT.all.mb58.gz 324.03MB Kongsberg multibeam vendor format
0024_20130124_065108_TGT.all.mb58.gz 331.89MB Kongsberg multibeam vendor format
0025_20130124_072108_TGT.all.mb58.gz 188.49MB Kongsberg multibeam vendor format
0026_20130124_075107_TGT.all.mb58.gz 171.66MB Kongsberg multibeam vendor format
0027_20130124_082108_TGT.all.mb58.gz 192.70MB Kongsberg multibeam vendor format
0028_20130124_083932_TGT.all.mb58.gz 287.35MB Kongsberg multibeam vendor format
0029_20130124_090825_TGT.all.mb58.gz 56.93MB Kongsberg multibeam vendor format
0030_20130124_091431_TGT.all.mb58.gz 76.43MB Kongsberg multibeam vendor format
0031_20130124_092309_TGT.all.mb58.gz 257.07MB Kongsberg multibeam vendor format
0032_20130124_094856_TGT.all.mb58.gz 92.00MB Kongsberg multibeam vendor format
0033_20130124_095801_TGT.all.mb58.gz 292.44MB Kongsberg multibeam vendor format
0034_20130124_102600_TGT.all.mb58.gz 253.15MB Kongsberg multibeam vendor format
0035_20130124_105158_TGT.all.mb58.gz 101.50MB Kongsberg multibeam vendor format
0036_20130124_110243_TGT.all.mb58.gz 22.13MB Kongsberg multibeam vendor format
0037_20130124_110500_TGT.all.mb58.gz 112.08MB Kongsberg multibeam vendor format
0038_20130124_111620_TGT.all.mb58.gz 154.17MB Kongsberg multibeam vendor format
0039_20130124_113146_TGT.all.mb58.gz 311.05MB Kongsberg multibeam vendor format
0040_20130124_120146_TGT.all.mb58.gz 49.92MB Kongsberg multibeam vendor format
0041_20130124_120642_TGT.all.mb58.gz 255.95MB Kongsberg multibeam vendor format
0042_20130124_123115_TGT.all.mb58.gz 248.38MB Kongsberg multibeam vendor format
0043_20130124_125526_TGT.all.mb58.gz 19.83MB Kongsberg multibeam vendor format
0044_20130124_125727_TGT.all.mb58.gz 48.31MB Kongsberg multibeam vendor format
0045_20130124_130206_TGT.all.mb58.gz 157.05MB Kongsberg multibeam vendor format
0046_20130124_131733_TGT.all.mb58.gz 15.96MB Kongsberg multibeam vendor format
0047_20130124_131906_TGT.all.mb58.gz 142.50MB Kongsberg multibeam vendor format
0048_20130124_133336_TGT.all.mb58.gz 11.69MB Kongsberg multibeam vendor format
0049_20130124_133449_TGT.all.mb58.gz 0.94MB Kongsberg multibeam vendor format
0050_20130124_133455_TGT.all.mb58.gz 30.06MB Kongsberg multibeam vendor format
0051_20130124_133804_TGT.all.mb58.gz 291.22MB Kongsberg multibeam vendor format
0052_20130124_140803_TGT.all.mb58.gz 275.88MB Kongsberg multibeam vendor format
0053_20130124_143803_TGT.all.mb58.gz 281.13MB Kongsberg multibeam vendor format
0054_20130124_150802_TGT.all.mb58.gz 285.84MB Kongsberg multibeam vendor format
0055_20130124_153802_TGT.all.mb58.gz 322.28MB Kongsberg multibeam vendor format
0056_20130124_160802_TGT.all.mb58.gz 317.62MB Kongsberg multibeam vendor format
0057_20130124_163803_TGT.all.mb58.gz 287.73MB Kongsberg multibeam vendor format
0058_20130124_170803_TGT.all.mb58.gz 170.91MB Kongsberg multibeam vendor format
0059_20130124_173803_TGT.all.mb58.gz 154.67MB Kongsberg multibeam vendor format
0060_20130124_180802_TGT.all.mb58.gz 163.53MB Kongsberg multibeam vendor format
0061_20130124_183807_TGT.all.mb58.gz 163.30MB Kongsberg multibeam vendor format
0062_20130124_190803_TGT.all.mb58.gz 299.65MB Kongsberg multibeam vendor format
0063_20130124_193810_TGT.all.mb58.gz 299.28MB Kongsberg multibeam vendor format
0064_20130124_200802_TGT.all.mb58.gz 316.11MB Kongsberg multibeam vendor format
0065_20130124_203803_TGT.all.mb58.gz 298.14MB Kongsberg multibeam vendor format
0066_20130124_210802_TGT.all.mb58.gz 163.34MB Kongsberg multibeam vendor format
0067_20130124_213802_TGT.all.mb58.gz 260.15MB Kongsberg multibeam vendor format
0068_20130124_220803_TGT.all.mb58.gz 276.61MB Kongsberg multibeam vendor format
0069_20130124_223805_TGT.all.mb58.gz 262.33MB Kongsberg multibeam vendor format
0070_20130124_230802_TGT.all.mb58.gz 263.25MB Kongsberg multibeam vendor format
0071_20130124_233803_TGT.all.mb58.gz 260.28MB Kongsberg multibeam vendor format
0072_20130125_000803_TGT.all.mb58.gz 267.05MB Kongsberg multibeam vendor format
0073_20130125_003803_TGT.all.mb58.gz 284.72MB Kongsberg multibeam vendor format
0074_20130125_010803_TGT.all.mb58.gz 274.88MB Kongsberg multibeam vendor format
0075_20130125_013806_TGT.all.mb58.gz 256.01MB Kongsberg multibeam vendor format
0076_20130125_020803_TGT.all.mb58.gz 269.69MB Kongsberg multibeam vendor format
0077_20130125_023803_TGT.all.mb58.gz 212.45MB Kongsberg multibeam vendor format
0078_20130125_030602_TGT.all.mb58.gz 271.24MB Kongsberg multibeam vendor format
0079_20130125_033605_TGT.all.mb58.gz 288.42MB Kongsberg multibeam vendor format
0080_20130125_040602_TGT.all.mb58.gz 55.90MB Kongsberg multibeam vendor format

Metadata Files: 1

Files File Size Description
TN290C_Multibeam.xml NGDC created ISO metadata